Location: Newark
(48.1500°N, 2.9667°W)
Time: 05:01:34
(UTC+00:00)

Altair - Pass Details

Date: 04 February 2020
Orbit: 1502 x 1682 km, 47.2° (Epoch: 17 February)

Event Time Altitude Azimuth Distance (km) Brightness Sun altitude
Rises 07:41:01 0° 251° (WSW) 4,839 9.7 -0.2°
Reaches altitude 10° 07:44:06 10° 250° (WSW) 3,875 9.2 0.3°
Maximum altitude 07:54:04 80° 166° (SSE) 1,698 8.0 1.8°
Drops below altitude 10° 08:04:16 10° 82° (E) 3,948 10.6 3.3°
Sets 08:07:26 0° 81° (E) 4,934 11.1 3.7°
